Location: Christianberg
(48.9086°N, 14.0209°E)
Time: 06:15:18
(UTC+00:00)

SL-4 R/B - Pass Details

Date: 27 October 2021
Orbit: 427 x 661 km, 51.6° (Epoch: 06 December)

Event Time Altitude Azimuth Distance (km) Brightness Sun altitude
Exits shadow 02:31:58 11° 129° (SE) 1,770 4.9 -31.7°
Drops below altitude 10° 02:32:11 10° 128° (SE) 1,851 5.0 -31.7°
Sets 02:34:21 0° 125° (SE) 2,702 6.0 -31.3°
